Location: Lane
(33.5226°N, 79.8788°W)
Time: 10:49:21
(UTC+00:00)

Altair - Pass Details

Date: 04 October 2022
Orbit: 1501 x 1682 km, 47.2° (Epoch: 30 November)

Event Time Altitude Azimuth Distance (km) Brightness Sun altitude
Rises 16:15:55 0° 306° (NW) 4,912 9.8 50.0°
Reaches altitude 10° 16:19:03 10° 306° (NW) 3,934 9.4 50.2°
Maximum altitude 16:29:15 86° 219° (SW) 1,687 8.8 50.9°
Drops below altitude 10° 16:39:22 10° 132° (SE) 3,908 10.3 51.3°
Sets 16:42:29 0° 132° (SE) 4,878 10.6 51.5°
